This is the latest recevied weather packets stored in our database for station/object K5SVV. If no packets are shown the sender has not sent any weather packets the latest 10 day(s).
| Time | Temp. | Humidity | Pressure | Rain* | Wind** | Luminosity | Snow |
|---|---|---|---|---|---|---|---|
| 1777746053 | 21.67° C | 46% | 1020.7 hPa | 0 mm | - | 779 W/m² | - |
| 1777745752 | 21.11° C | 45% | 1020.7 hPa | 0 mm | - | 771 W/m² | - |
| 1777745450 | 21.11° C | 46% | 1020.9 hPa | 0 mm | - | 774 W/m² | - |
| 1777745146 | 21.67° C | 45% | 1020.9 hPa | 0 mm | - | 787 W/m² | - |
| 1777744838 | 21.67° C | 48% | 1021 hPa | 0 mm | - | 783 W/m² | - |
| 1777744532 | 21.11° C | 47% | 1021 hPa | 0 mm | - | 772 W/m² | - |
| 1777744228 | 21.11° C | 45% | 1021 hPa | 0 mm | - | 763 W/m² | - |
| 1777743926 | 21.11° C | 47% | 1021 hPa | 0 mm | - | 750 W/m² | - |
| 1777743622 | 21.11° C | 47% | 1021.2 hPa | 0 mm | - | 748 W/m² | - |
| 1777743319 | 21.67° C | 48% | 1021.2 hPa | 0 mm | - | 781 W/m² | - |
| 1777743017 | 21.67° C | 47% | 1021.4 hPa | 0 mm | - | 787 W/m² | - |
| 1777742714 | 21.67° C | 54% | 1021.4 hPa | 0 mm | - | 776 W/m² | - |
| 1777742410 | 20.56° C | 54% | 1021.5 hPa | 0 mm | - | 775 W/m² | - |
| 1777742106 | 20.56° C | 50% | 1021.5 hPa | 0 mm | - | 779 W/m² | - |
| 1777741804 | 20.56° C | 51% | 1021.6 hPa | 0 mm | - | 785 W/m² | - |
| 1777741500 | 20.56° C | 55% | 1021.6 hPa | 0 mm | - | 787 W/m² | - |
| 1777741196 | 20.56° C | 51% | 1021.5 hPa | 0 mm | - | 778 W/m² | - |
| 1777740893 | 20° C | 50% | 1021.4 hPa | 0 mm | - | 757 W/m² | - |
| 1777740590 | 20.56° C | 53% | 1021.5 hPa | 0 mm | - | 767 W/m² | - |
| 1777740287 | 20° C | 55% | 1021.4 hPa | 0 mm | - | 785 W/m² | - |
| 1777739984 | 20° C | 53% | 1021.7 hPa | 0 mm | - | 798 W/m² | - |
| 1777739679 | 19.44° C | 57% | 1021.8 hPa | 0 mm | - | 770 W/m² | - |
| 1777739377 | 19.44° C | 54% | 1021.5 hPa | 0 mm | - | 778 W/m² | - |
| 1777739074 | 19.44° C | 55% | 1021.4 hPa | 0 mm | - | 769 W/m² | - |
| 1777738771 | 19.44° C | 57% | 1021.5 hPa | 0 mm | - | 752 W/m² | - |
* Rain latest hour (hover to see other rain measurements)
** Current wind speed in m/s (hover to see current wind gust speed)